[Iaude] MPEC J84: 2006 CN10 [a=2.80,e=0.61,i=1.2,H=21.1]

mpec at marsden.cfa.harvard.edu mpec at marsden.cfa.harvard.edu
Fri May 15 13:40:01 EDT 2020


M.P.E.C. 2020-J84                                  Issued 2020 May 15, 17:34 UT

     The Minor Planet Electronic Circulars contain information on unusual
         minor planets and routine data on comets.  They are published
    on behalf of Division F of the International Astronomical Union by the
          Minor Planet Center, Smithsonian Astrophysical Observatory,
                          Cambridge, MA 02138, U.S.A.

             Prepared using the Tamkin Foundation Computer Network

                              MPC at CFA.HARVARD.EDU
            URL https://www.minorplanetcenter.net/    ISSN 1523-6714

                                   2006 CN10                                    


                           Revision to MPEC 2006-C47                            

Additional Observations:
     K06C10N  S2020 05 12.96100 10 57 34.14 +05 37 41.8          19   RLEJ084C51
     K06C10N  s2020 05 12.96100 1 - 6745.1368 + 1182.8430 +  364.3502   EJ084C51
     K06C10N  S2020 05 13.09177 10 58 17.95 +05 33 46.9                LEJ084C51
     K06C10N  s2020 05 13.09177 1 - 6748.8240 + 1165.9657 +  350.2149   EJ084C51
     K06C10N  S2020 05 13.35333 10 59 45.38 +05 25 58.0                LEJ084C51
     K06C10N  s2020 05 13.35333 1 - 6755.9909 + 1132.1652 +  321.9349   EJ084C51
     K06C10N  S2020 05 13.48410 11 00 29.07 +05 22 03.8                LEJ084C51
     K06C10N  s2020 05 13.48410 1 - 6759.4656 + 1115.2469 +  307.8278   EJ084C51
     K06C10N  S2020 05 13.61488 11 01 12.63 +05 18 08.8                LEJ084C51
     K06C10N  s2020 05 13.61488 1 - 6763.0367 + 1098.3255 +  293.8062   EJ084C51
     K06C10N  S2020 05 13.87643 11 02 39.74 +05 10 18.4                LEJ084C51
     K06C10N  s2020 05 13.87643 1 - 6769.6248 + 1064.4150 +  265.5669   EJ084C51
     K06C10N  S2020 05 13.87656 11 02 39.77 +05 10 17.5                LEJ084C51
     K06C10N  s2020 05 13.87656 1 - 6764.1508 + 1074.4138 +  348.6650   EJ084C51
     K06C10N  S2020 05 14.00733 11 03 23.26 +05 06 22.6                LEJ084C51
     K06C10N  s2020 05 14.00733 1 - 6767.5323 + 1057.4800 +  334.5786   EJ084C51
     K06C10N  S2020 05 14.07266 11 03 44.92 +05 04 25.9                LEJ084C51
     K06C10N  s2020 05 14.07266 1 - 6771.9155 + 1044.0006 +  285.9928   EJ084C51
     K06C10N  S2020 05 14.13811 11 04 06.64 +05 02 28.5                LEJ084C51
     K06C10N  s2020 05 14.13811 1 - 6770.8435 + 1040.5340 +  320.5035   EJ084C51
     K06C10N  S2020 05 14.26888 11 04 50.04 +04 58 33.2                LEJ084C51
     K06C10N  s2020 05 14.26888 1 - 6774.0865 + 1023.5673 +  306.3695   EJ084C51
     K06C10N  S2020 05 14.33421 11 05 11.64 +04 56 36.0                LEJ084C51
     K06C10N  s2020 05 14.33421 1 - 6778.1977 + 1010.0364 +  257.7814   EJ084C51
     K06C10N  S2020 05 14.39966 11 05 33.33 +04 54 37.9                LEJ084C51
     K06C10N  s2020 05 14.39966 1 - 6777.2512 + 1006.5963 +  292.3117   EJ084C51
     K06C10N  S2020 05 14.46498 11 05 54.91 +04 52 41.5                LEJ084C51
     K06C10N  s2020 05 14.46498 1 - 6781.2334 +  993.0371 +  243.6911   EJ084C51
     K06C10N  S2020 05 14.46511 11 05 55.01 +04 52 40.8                LEJ084C51
     K06C10N  s2020 05 14.46511 1 - 6776.1275 + 1003.1287 +  326.8022   EJ084C51
     K06C10N  S2020 05 14.53043 11 06 16.59 +04 50 43.4                LEJ084C51
     K06C10N  s2020 05 14.53043 1 - 6780.5138 +  989.2666 +  275.4155   EJ084C51
     K06C10N  S2020 05 14.59639 11 06 38.45 +04 48 43.5                LEJ084C51
     K06C10N  s2020 05 14.59639 1 - 6749.8099 + 1024.8612 +  641.8772   EJ084C51
     K06C10N  S2020 05 14.72717 11 07 21.60 +04 44 49.9                LEJ084C51
     K06C10N  s2020 05 14.72717 1 - 6753.6686 + 1008.0342 +  627.8163   EJ084C51
     K06C10N  S2020 05 14.85794 11 08 04.71 +04 40 54.8                LEJ084C51
     K06C10N  s2020 05 14.85794 1 - 6757.4460 +  991.1996 +  613.8297   EJ084C51
     K06C10N  S2020 05 14.98872 11 08 47.81 +04 36 59.4                LEJ084C51
     K06C10N  s2020 05 14.98872 1 - 6761.1581 +  974.3420 +  599.7819   EJ084C51
     K06C10N  S2020 05 15.11899 11 09 30.66 +04 33 07.4                LEJ084C51
     K06C10N  s2020 05 15.11899 1 - 6791.3312 +  917.8307 +  254.0072   EJ084C51

Observer details:
C51 WISE.  Observer Near-Earth Object Wide-field Infrared Survey Explorer.  
    Measurers A. K. Mainzer, J. M. Bauer, T. Grav, J. R. Masiero, R. M. Cutri, 
   J. W. Dailey, E. Kramer, J. Pittichova, S. Sonnett, E. L. Wright.

First and last observations above in comparison with prediction:
Residuals in seconds of arc (or two decimals in degrees), reference and Delta-T
200512 C51 2.95+ 1.17+    200515 C51 2.96+ 1.19+    MPO215105   +1.31 days

Orbital elements:
2006 CN10                                                Earth MOID = 0.1044 AU
Epoch 2020 May 31.0 TT = JDT 2459000.5                  Bell
M  10.87235              (2000.0)            P               Q
n   0.21013786     Peri.  312.33037     -0.99942743     +0.02959440
a   2.8019896      Node   229.37235     -0.02101036     -0.92277141
e   0.6073678      Incl.    1.23822     -0.02652120     -0.38420970
P   4.69           H   21.1           G   0.15           U   0
Residuals in seconds of arc
060106 645  0.1+  0.1-    060222 699  0.6+  0.1-    060325 644  0.1+  0.2+
060106 645  0.0   0.2+    060223 704  1.3+  0.2-    060325 644  0.4-  0.0
060106 645  0.2-  0.1+    060223 704  0.9+  0.5+    060326 H45 (1.7-  0.2-)
060207 703  1.3-  0.1+    060223 704  0.7+  0.0     060326 H45  0.3+  1.3+
060207 703  0.4-  0.3-    060223 704  1.1+  0.4+    060326 H45 (1.9-  0.7-)
060207 703  1.1-  1.5-    060226 704  0.5+  0.3+    060326 H45  1.1-  0.1-
060207 703  0.7-  0.2-    060226 704  0.5+  0.3+    060406 704  1.0+  0.3+
060207 703  0.4+  0.1-    060226 704  0.9+  0.4+    060406 704  0.4-  0.5-
060207 703 (2.4+  0.8+)   060226 704  0.5+  0.3+    060406 704  0.1+  1.1+
060207 703 (0.0   2.1+)   060226 704  0.7+  0.7+    060406 704  0.3-  0.7-
060207 595  0.9-  0.7+    060228 704  0.5-  0.7+    060428 807  0.3+  0.0
060207 595  0.0   0.1+    060228 704  0.7+  0.3-    060428 807  0.3+  0.1+
060208 J95  0.1-  0.5-    060228 704  0.5+  0.4+    060430 448  0.7+  0.0
060208 J95  0.8-  0.5-    060228 704  0.1+  0.1+    060430 448  0.1-  0.3-
060208 673  0.3+  0.3+    060228 704  0.0   0.5+    060430 448  0.2+  0.2-
060208 932  0.1+  0.0     060228 A48  0.7+  0.8-    060509 G96  0.1+  0.1-
060208 673  0.7+  0.1-    060228 A48 (1.7+  0.5-)   060509 G96  0.1+  0.1+
060208 932  0.3-  0.0     060228 A48  1.0+  0.3-    060509 G96  0.2+  0.1+
060208 673  0.3+  0.1+    060302 204  0.1+  0.4+    060509 G96  0.3+  0.0
060208 932  0.1-  0.1-    060302 204  0.6-  0.1+    060519 G96  0.1-  0.3+
060208 673  0.4+  0.2+    060302 204  0.2-  0.0     060519 G96  0.2+  0.0
060208 932  0.5-  0.3-    060302 204  0.3-  0.1+    060519 G96  0.3+  0.5+
060208 703  0.9-  0.9-    060302 204  0.3-  0.0     060519 G96  0.0   0.2+
060208 703  0.5-  0.4+    060303 704  0.4+  0.1-    060520 691  0.2+  0.0
060208 703  0.2+  0.6+    060303 704  0.3+  0.0     060520 691  0.3+  0.1+
060208 703  0.1-  0.0     060303 704  0.3+  0.2+    060520 691  0.2+  0.1+
060208 703  0.1-  0.0     060303 704  0.1+  0.1-    200512 C51  0.2+  0.1+
060208 703  0.3+  0.4+    060304 379  0.3-  0.3-    200513 C51  0.4+  0.2-
060208 703  0.3-  0.2-    060304 379  0.2-  0.8-    200513 C51  0.2-  0.3+
060209 673  0.5+  0.1+    060304 379  0.7-  0.2+    200513 C51  0.3+  0.8+
060209 673  0.4+  0.3+    060304 071  0.4+  0.1-    200513 C51  0.5-  0.6+
060209 673  0.0   0.3+    060304 071 (3.4+  1.4-)   200513 C51  0.0   0.2-
060209 673  0.2+  0.2+    060305 608  1.2+  1.3-    200513 C51  0.2-  0.5-
060210 J95  0.1-  1.0+    060305 608  1.5+  1.0-    200514 C51  0.2+  0.6-
060210 J95  0.3+  0.6+    060305 608  0.9+  0.9-    200514 C51  0.3-  0.1-
060215 J95  0.0   0.0     060306 203  0.2-  0.4+    200514 C51  0.3-  0.2+
060216 J95  0.3-  0.3-    060306 203  0.3-  0.3-    200514 C51  0.2+  0.3-
060216 J95  0.1-  0.4-    060311 428  0.8-  0.4+    200514 C51  0.4-  0.4-
060216 J95  0.1-  0.2-    060311 428  1.2-  0.0     200514 C51  0.1-  0.8-
060220 932  0.0   0.0     060311 428  1.0-  0.0     200514 C51  0.6-  0.1-
060220 932  0.1-  0.0     060324 703  0.4-  0.1+    200514 C51  0.2+  0.2-
060220 932  0.0   0.1+    060324 703  0.5-  0.0     200514 C51  0.1-  0.5-
060222 703  0.1+  0.4-    060324 703  0.3-  0.0     200514 C51  0.6+  0.5-
060222 703  0.3-  0.4-    060324 703  0.3-  0.0     200514 C51  0.1+  0.7+
060222 703  0.2+  0.3-    060325 H45 (0.0   2.0+)   200514 C51  0.2-  0.3+
060222 703  0.1+  0.3-    060325 H45  0.5-  0.4+    200514 C51  0.1+  0.4-
060222 699  1.3+  0.2+    060325 H45  0.1-  0.2+    200515 C51  0.2+  0.1+
060222 699  0.4+  0.1+    060325 H45  1.4-  0.2-
060222 699  0.1-  0.1+    060325 644  0.1+  0.1-

Ephemeris:
2006 CN10                a,e,i = 2.80, 0.61, 1                   q = 1.1002
Date    TT    R. A. (2000) Decl.     Delta      r    Elong.  Phase     V
2020 04 15    08 21 39.5 +16 39 22   0.3319  1.1026    98.5    64.1    21.2
...
2020 04 30    09 43 03.2 +11 43 13   0.3238  1.1314   104.2    59.7    21.1
...
2020 05 08    10 29 23.3 +08 04 24   0.3337  1.1590   108.5    55.7    21.1
...
2020 05 14    11 03 20.7 +05 06 37   0.3493  1.1846   111.6    52.5    21.1
2020 05 15    11 08 51.4 +04 36 41   0.3526  1.1892   112.1    52.0    21.1
2020 05 16    11 14 19.0 +04 06 48   0.3561  1.1940   112.6    51.4    21.1
...
2020 05 22    11 45 49.5 +01 10 34   0.3817  1.2245   115.2    48.4    21.3
...
2020 05 30    12 24 03.5 -02 27 41   0.4271  1.2700   117.7    45.0    21.5
...
2020 06 14    13 23 54.4 -08 03 02   0.5445  1.3670   119.3    40.4    22.1

M. P. C. Staff               (C) Copyright 2020 MPC           M.P.E.C. 2020-J84




More information about the Iaude mailing list